User: anonymous   Login
Location: *
(52.2090°N, 4.1550°W)
Time: 07:49:22
(UTC+00:00)
Language:

Cosmos 1500 Rocket - Orbit

View from above orbital plane
View from above orbital plane
View from above satellite
View from above satellite

Ground track
Ground track

The orbit data is extracted from the following two-line orbital elements,

1 14373U 83099B   20223.12671358  .00000044  00000-0  23405-5 0  9996
2 14373  82.5379 249.7692 0021048  35.3927  23.4226 14.83793863991399
Epoch (UTC): 10 August 2020 03:02:28
Eccentricity: 0.0021048
inclination: 82.5379°
perigee height: 602 km
apogee height: 632 km
right ascension of ascending node: 249.7692°
argument of perigee: 35.3927°
revolutions per day: 14.83793863
mean anomaly at epoch: 23.4226°
orbit number at epoch: 99139

The dashed part of the orbit path shows where the satellite is in the earth's shadow,  

DLR